WESTFORD NEEDLES, 3257

Orbit data source: Space-Track

WESTFORD NEEDLES, 3257 is space debris in LEO originally from a launch on Thu, 09 May 1963 UTC launched from the Air Force Western Test Range (AFWTR). Debris objects in space refer to the collection of defunct objects orbiting the Earth. Examples of debris include non-operational satellites, rocket bodies, and fragments generated from explosions, collisions, or faulty payload assembly.

Loading next visibility...
Identifier
3257, 1963-014BX
Orbit
LEO
Country
Flag of USUS
Related business
Manufacturer
Unknown
Mission
Spacecraft
Bus & Motor
Unknown
Mass
Unknown
Launch date (UTC)
1963-05-09 (63 years ago)
Launch vehicle
Unknown
Launch site
Air Force Western Test Range (AFWTR)
Object type
Payload
Rocket body
Debris
Shape & HBR
Unknown shape, 1.1 m
Radar Cross Section
Medium (>0.1 m² and <1 m²)

Expand to show TLE details & history
Last TLE update: 1 day ago

TLE from 1 day ago
0 WESTFORD NEEDLES
1 03257U 63014BX  26194.29739395  .00000629  00000-0  26617+0 0  9998
2 03257  87.3164 145.6113 0432930 133.4579 230.3141  8.65545845 62194
Epoch: 2026-07-13T07:08Z
TLE epoch observation values (Epoch: 2026-07-13T07:08:14.837Z)
Latitude
-0.00004°
Longitude
107.36555°
Altitude
3,931.953 km
Speed
6.129 km/s
True Right ascension
09h 42m 26s
True Declination
0° 00' 00"
Sunlit
Object was in daylight at epoch
Visualization orbit readout
Latitude
Unknown
Longitude
Unknown
Altitude
Unknown
Speed
Unknown
Apparent Right ascension
Unknown
Apparent Declination
Unknown
Sunlit
N/A
Visualization observer readout
Local Sidereal Time
00:00:00
Azimuth
Unknown
Elevation
Unknown
Doppler factor
Unknown
Orbital elements
Apogee altitude
4,073.56 km
Perigee altitude
3,206.142 km
Semi-major axis
10,017.988 km
Eccentricity
0.04329
Inclination
87.3164°
RAAN
145.6113°
Arg. of periapsis
133.4579°
True anomaly
226.62654°
Mean anomaly
230.3141°
Eccentric anomaly
228.45753°
Mean motion
2.16457 °/min
Orbital period
166.31 mins
BSTAR
0.26617
Loading maneuver chart data...
Computing Atmospheric mass density...
Loading historical data...
Loading historical data...
Loading historical data...
Loading historical data...
Loading historical data...
Loading historical data...
Loading historical data...

Documentation

Showing up to 5 results
|